Terminal Aerodrome Forecast
Issued by NWS

Home | Current Version | Previous Version | Text Only | Print | Product List | Glossary On
Versions: 1 2 3 4 5 6 7 8 9 10 11 12 13 14 15 16 17 18 19 20 21 22 23 24 25 26 27 28 29 30 31 32 33
000
FTUS45 KPSR 192340
TAFPHX
TAF
KPHX 192340Z 2000/2106 30015G25KT P6SM BKN060 BKN080
      TEMPO 2000/2001 30020G30KT 6SM BLDU
     FM200500 26010KT P6SM SCT060
     FM201900 30012KT P6SM SKC=

USA.gov is the U.S. government's official web portal to all federal, state and local government web resources and services.